Location: Dziadowski
(50.3833°N, 20.0333°E)
Time: 00:14:09
(UTC+00:00)

Cosmos 962 Rocket - Pass Details

Date: 18 January 2026
Orbit: 951 x 998 km, 83.0° (Epoch: 15 February)

Event Time Altitude Azimuth Distance (km) Brightness Sun altitude
Rises 05:16:29 0° 199° (SSW) 3,613 7.5 -11.6°
Reaches altitude 10° 05:19:00 10° 202° (SSW) 2,674 6.8 -11.3°
Maximum altitude 05:25:03 62° 283° (WNW) 1,071 4.5 -10.4°
Drops below altitude 10° 05:31:12 10° 5° (N) 2,714 6.7 -9.4°
Sets 05:33:46 0° 8° (N) 3,672 7.4 -9.1°
